{"data":{"norad_id":68097,"intl_designator":"2026-042AE","name":"STARLINK-36853","alt_names":[],"object_type":"PAYLOAD","status":"ACTIVE","operator":null,"country":"US","launch_date":"2026-03-04","launch_site_code":"AFETR","launch_vehicle":null,"mission":null,"orbit_class":"UNKNOWN","rcs_meters":null,"size_class":null,"mass_kg":null,"dimensions":null,"purposes":["comms"],"wikipedia_slug":null,"has_3d_model":false,"image_url":null,"decayed_at":null,"tle_current":{"epoch":"2026-05-24T12:40:01.111296Z","epoch_age_seconds":125929,"freshness":"FRESH","line1":"1 68097U 26042AE  26144.52779064  .00020840  00000+0  62631-3 0  9995","line2":"2 68097  53.1588 185.9477 0000897  75.6338 284.4764 15.34394976 13919","mean_motion":15.34394976,"eccentricity":8.97e-5,"inclination_deg":53.1588,"raan_deg":185.9477,"arg_perigee_deg":75.6338,"mean_anomaly_deg":284.4764,"bstar":0.00062631,"rev_number":1391,"period_min":93.8480653628,"perigee_km":462.10454792562,"apogee_km":463.3317973436,"semimajor_km":6840.8551726346,"source":"CELESTRAK","updated_at":"2026-05-25T13:38:21.840196Z"}}}